| time (UTC) | temp F | wind direction | speed knots | gust knots | rain 1hr in | rain 24hr in | rain mn in | humidity % | barometer mb |
| 20260906183521 | 92 | 346 | 4.3 | 5.2 | 0.00 | 0.00 | 0.00 | 57 | 1012.0 |
| 20260906182521 | 92 | 299 | 0.9 | 3.5 | 0.00 | 0.00 | 0.00 | 56 | 1012.0 |
| 20260906182021 | 93 | 328 | 0.9 | 5.2 | 0.00 | 0.00 | 0.00 | 56 | 1012.1 |
| 20260906181521 | 93 | 134 | 0.9 | 5.2 | 0.00 | 0.00 | 0.00 | 57 | 1012.2 |
| 20260906181021 | 93 | 107 | 2.6 | 2.6 | 0.00 | 0.00 | 0.00 | 57 | 1012.3 |
| 20260906180521 | 94 | 78 | 1.7 | 2.6 | 0.00 | 0.00 | 0.00 | 58 | 1012.5 |
| 20260906175021 | 93 | 31 | 0.9 | 2.6 | 0.00 | 0.00 | 0.00 | 58 | 1012.8 |
| 20260906174522 | 93 | 119 | 1.7 | 2.6 | 0.00 | 0.00 | 0.00 | 59 | 1012.8 |
| 20260906174021 | 93 | 111 | 1.7 | 2.6 | 0.00 | 0.00 | 0.00 | 59 | 1012.9 |
| 20260906173521 | 93 | 355 | 0.9 | 7.0 | 0.00 | 0.00 | 0.00 | 61 | 1013.0 |
| 20260906173021 | 93 | 118 | 2.6 | 7.0 | 0.00 | 0.00 | 0.00 | 61 | 1013.1 |
| 20260906172521 | 92 | 134 | 1.7 | 2.6 | 0.00 | 0.00 | 0.00 | 61 | 1013.1 |
| 20260906172021 | 92 | 75 | 0.9 | 2.6 | 0.00 | 0.00 | 0.00 | 62 | 1013.2 |
| 20260906171021 | 91 | 74 | 0.0 | 4.3 | 0.00 | 0.00 | 0.00 | 63 | 1013.5 |
| 20260906170521 | 91 | 349 | 0.9 | 4.3 | 0.00 | 0.00 | 0.00 | 64 | 1013.6 |
| 20260906170021 | 91 | 125 | 3.5 | 3.5 | 0.00 | 0.00 | 0.00 | 64 | 1013.6 |
| 20260906165521 | 91 | 124 | 0.9 | 2.6 | 0.00 | 0.00 | 0.00 | 65 | 1013.6 |
| 20260906165020 | 90 | 101 | 0.0 | 3.5 | 0.00 | 0.00 | 0.00 | 65 | 1013.6 |
| 20260906164521 | 90 | 101 | 1.7 | 3.5 | 0.00 | 0.00 | 0.00 | 66 | 1013.7 |
| 20260906164020 | 89 | 140 | 0.0 | 1.7 | 0.00 | 0.00 | 0.00 | 67 | 1013.7 |
| 20260906163021 | 89 | 111 | 0.0 | 2.6 | 0.00 | 0.00 | 0.00 | 68 | 1013.7 |
| 20260906162521 | 89 | 113 | 0.9 | 2.6 | 0.00 | 0.00 | 0.00 | 69 | 1013.7 |
| 20260906162020 | 88 | 124 | 1.7 | 1.7 | 0.00 | 0.00 | 0.00 | 70 | 1013.6 |
| 20260906161520 | 88 | 70 | 0.9 | 1.7 | 0.00 | 0.00 | 0.00 | 71 | 1013.6 |
| 20260906160520 | 87 | 86 | 0.9 | 2.6 | 0.00 | 0.00 | 0.00 | 72 | 1013.7 |
| 20260906160020 | 87 | 312 | 0.9 | 3.5 | 0.00 | 0.00 | 0.00 | 72 | 1013.7 |
| 20260906155520 | 87 | 113 | 2.6 | 3.5 | 0.00 | 0.00 | 0.00 | 73 | 1013.7 |
| 20260906155020 | 86 | 168 | 0.9 | 6.1 | 0.00 | 0.00 | 0.00 | 74 | 1013.6 |
| 20260906153520 | 85 | 38 | 0.0 | 1.7 | 0.00 | 0.00 | 0.00 | 76 | 1013.7 |
| 20260906153020 | 85 | 170 | 0.0 | 3.5 | 0.00 | 0.00 | 0.00 | 76 | 1013.8 |
| 20260906152020 | 85 | 313 | 0.0 | 1.7 | 0.00 | 0.00 | 0.00 | 77 | 1013.7 |
| 20260906151520 | 84 | 253 | 0.0 | 2.6 | 0.00 | 0.00 | 0.00 | 77 | 1013.6 |
| 20260906151020 | 84 | 245 | 1.7 | 4.3 | 0.00 | 0.00 | 0.00 | 77 | 1013.6 |
| 20260906150520 | 84 | 190 | 1.7 | 4.3 | 0.00 | 0.00 | 0.00 | 78 | 1013.5 |
| 20260906150020 | 84 | 111 | 0.0 | 1.7 | 0.00 | 0.00 | 0.00 | 78 | 1013.5 |
| 20260906145520 | 84 | 282 | 1.7 | 3.5 | 0.00 | 0.00 | 0.00 | 78 | 1013.4 |
| 20260906145020 | 84 | 20 | 1.7 | 4.3 | 0.00 | 0.00 | 0.00 | 78 | 1013.4 |
| 20260906144520 | 84 | 192 | 1.7 | 4.3 | 0.00 | 0.00 | 0.00 | 78 | 1013.4 |
| 20260906144020 | 84 | 118 | 0.9 | 3.5 | 0.00 | 0.00 | 0.00 | 78 | 1013.4 |
| 20260906143520 | 84 | 229 | 2.6 | 3.5 | 0.00 | 0.00 | 0.00 | 78 | 1013.4 |
| 20260906143019 | 84 | 155 | 0.9 | 3.5 | 0.00 | 0.00 | 0.00 | 78 | 1013.4 |
| 20260906142020 | 84 | 215 | 4.3 | 4.3 | 0.00 | 0.00 | 0.00 | 79 | 1013.3 |
| 20260906141520 | 84 | 113 | 0.9 | 2.6 | 0.00 | 0.00 | 0.00 | 79 | 1013.2 |
| 20260906140020 | 83 | 225 | 0.0 | 4.3 | 0.00 | 0.00 | 0.00 | 79 | 1013.2 |
| 20260906135520 | 83 | 160 | 4.3 | 4.3 | 0.00 | 0.00 | 0.00 | 79 | 1013.3 |
| 20260906135019 | 83 | 165 | 0.9 | 3.5 | 0.00 | 0.00 | 0.00 | 79 | 1013.3 |
| 20260906133519 | 82 | 105 | 0.0 | 4.3 | 0.00 | 0.00 | 0.00 | 80 | 1012.9 |
| 20260906133019 | 82 | 155 | 2.6 | 4.3 | 0.00 | 0.00 | 0.00 | 80 | 1013.0 |
| 20260906132519 | 82 | 136 | 1.7 | 3.5 | 0.00 | 0.00 | 0.00 | 80 | 1012.9 |
| 20260906131519 | 81 | 177 | 0.0 | 6.1 | 0.00 | 0.00 | 0.00 | 80 | 1012.7 |
| 20260906131019 | 81 | 150 | 1.7 | 6.1 | 0.00 | 0.00 | 0.00 | 80 | 1012.7 |
| 20260906130019 | 81 | 146 | 0.0 | 2.6 | 0.00 | 0.00 | 0.00 | 80 | 1012.7 |
| 20260906125019 | 80 | 138 | 0.0 | 0.9 | 0.00 | 0.00 | 0.00 | 80 | 1012.5 |
| 20260906123518 | 80 | 138 | 0.0 | 0.9 | 0.00 | 0.00 | 0.00 | 80 | 1012.3 |
| 20260906123019 | 80 | 138 | 0.0 | 0.9 | 0.00 | 0.00 | 0.00 | 79 | 1012.3 |
| 20260906122018 | 80 | 138 | 0.0 | 1.7 | 0.00 | 0.00 | 0.00 | 79 | 1012.1 |
| 20260906121518 | 80 | 138 | 0.9 | 1.7 | 0.00 | 0.00 | 0.00 | 79 | 1012.0 |
| 20260906121018 | 80 | 138 | 0.0 | 0.0 | 0.00 | 0.00 | 0.00 | 79 | 1011.9 |
| 20260906120518 | 80 | 138 | 0.0 | 0.0 | 0.00 | 0.00 | 0.00 | 79 | 1011.9 |
| 20260906120018 | 80 | 138 | 0.0 | 0.0 | 0.00 | 0.00 | 0.00 | 79 | 1011.7 |
| 20260906115018 | 80 | 138 | 0.0 | 0.0 | 0.00 | 0.00 | 0.00 | 79 | 1011.6 |
| 20260906114518 | 80 | 138 | 0.0 | 1.7 | 0.00 | 0.00 | 0.00 | 79 | 1011.6 |
| 20260906114018 | 80 | 138 | 0.0 | 1.7 | 0.00 | 0.00 | 0.00 | 79 | 1011.5 |
| 20260906113517 | 80 | 130 | 0.0 | 0.0 | 0.00 | 0.00 | 0.00 | 79 | 1011.4 |
| 20260906113018 | 80 | 171 | 0.0 | 0.0 | 0.00 | 0.00 | 0.00 | 78 | 1011.3 |
| 20260906112517 | 80 | 171 | 0.0 | 0.0 | 0.00 | 0.00 | 0.00 | 78 | 1011.3 |
| 20260906112017 | 80 | 171 | 0.0 | 0.0 | 0.00 | 0.00 | 0.00 | 78 | 1011.3 |
| 20260906111517 | 81 | 171 | 0.0 | 0.0 | 0.00 | 0.00 | 0.00 | 78 | 1011.2 |
| 20260906111017 | 81 | 171 | 0.0 | 0.0 | 0.00 | 0.00 | 0.00 | 78 | 1011.0 |
| 20260906110518 | 81 | 171 | 0.0 | 0.0 | 0.00 | 0.00 | 0.00 | 78 | 1011.0 |
| 20260906110017 | 81 | 171 | 0.0 | 0.0 | 0.00 | 0.00 | 0.00 | 78 | 1010.9 |
| 20260906105517 | 81 | 171 | 0.0 | 0.0 | 0.00 | 0.00 | 0.00 | 78 | 1010.8 |
| 20260906105017 | 81 | 171 | 0.0 | 0.0 | 0.00 | 0.00 | 0.00 | 77 | 1010.8 |
| 20260906104517 | 81 | 171 | 0.0 | 0.0 | 0.00 | 0.00 | 0.00 | 77 | 1010.9 |
| 20260906104017 | 81 | 171 | 0.0 | 0.0 | 0.00 | 0.00 | 0.00 | 77 | 1010.8 |
| 20260906103517 | 81 | 171 | 0.0 | 0.0 | 0.00 | 0.00 | 0.00 | 77 | 1010.9 |
| 20260906101517 | 81 | 171 | 0.0 | 0.0 | 0.00 | 0.00 | 0.00 | 77 | 1010.8 |
| 20260906101017 | 81 | 171 | 0.0 | 0.0 | 0.00 | 0.00 | 0.00 | 77 | 1010.8 |
| 20260906100517 | 81 | 171 | 0.0 | 0.0 | 0.00 | 0.00 | 0.00 | 77 | 1010.8 |
| 20260906100017 | 81 | 171 | 0.0 | 0.0 | 0.00 | 0.00 | 0.00 | 77 | 1010.9 |
| 20260906095017 | 81 | 200 | 0.0 | 0.0 | 0.00 | 0.00 | 0.00 | 76 | 1011.0 |
| 20260906094517 | 81 | 200 | 0.0 | 0.0 | 0.00 | 0.00 | 0.00 | 76 | 1011.0 |
| 20260906094017 | 82 | 209 | 0.0 | 0.0 | 0.00 | 0.00 | 0.00 | 76 | 1011.0 |
| 20260906093517 | 82 | 166 | 0.0 | 0.0 | 0.00 | 0.00 | 0.00 | 76 | 1011.0 |
| 20260906093017 | 82 | 161 | 0.0 | 0.0 | 0.00 | 0.00 | 0.00 | 76 | 1011.0 |
| 20260906092016 | 82 | 236 | 0.0 | 0.9 | 0.00 | 0.00 | 0.00 | 76 | 1011.0 |
| 20260906091517 | 82 | 192 | 0.0 | 0.9 | 0.00 | 0.00 | 0.00 | 76 | 1011.0 |
| 20260906091017 | 82 | 156 | 0.0 | 0.9 | 0.00 | 0.00 | 0.00 | 76 | 1011.0 |
| 20260906090517 | 82 | 156 | 0.0 | 0.0 | 0.00 | 0.00 | 0.00 | 75 | 1011.0 |
| 20260906090016 | 82 | 156 | 0.0 | 0.9 | 0.00 | 0.00 | 0.00 | 75 | 1010.9 |
| 20260906085516 | 82 | 156 | 0.0 | 0.9 | 0.00 | 0.00 | 0.00 | 75 | 1010.8 |
| 20260906085016 | 82 | 156 | 0.0 | 0.0 | 0.00 | 0.00 | 0.00 | 75 | 1010.9 |
| 20260906083516 | 82 | 206 | 0.0 | 1.7 | 0.00 | 0.00 | 0.00 | 75 | 1010.8 |
| 20260906083016 | 82 | 229 | 0.0 | 1.7 | 0.00 | 0.00 | 0.00 | 74 | 1010.9 |
| 20260906082516 | 82 | 166 | 0.0 | 0.0 | 0.00 | 0.00 | 0.00 | 74 | 1010.9 |
| 20260906082016 | 82 | 214 | 0.0 | 0.0 | 0.00 | 0.00 | 0.00 | 74 | 1011.0 |
| 20260906081517 | 82 | 208 | 0.0 | 0.9 | 0.00 | 0.00 | 0.00 | 74 | 1011.1 |
| 20260906081016 | 82 | 125 | 0.0 | 2.6 | 0.00 | 0.00 | 0.00 | 74 | 1011.1 |
| 20260906075516 | 83 | 147 | 0.0 | 1.7 | 0.00 | 0.00 | 0.00 | 73 | 1011.2 |
| 20260906074516 | 83 | 223 | 1.7 | 1.7 | 0.00 | 0.00 | 0.00 | 73 | 1011.4 |
| 20260906074016 | 83 | 120 | 1.7 | 2.6 | 0.00 | 0.00 | 0.00 | 72 | 1011.4 |
| 20260906073516 | 83 | 133 | 0.9 | 2.6 | 0.00 | 0.00 | 0.00 | 72 | 1011.4 |
| 20260906073016 | 83 | 154 | 0.0 | 1.7 | 0.00 | 0.00 | 0.00 | 72 | 1011.4 |
| 20260906072516 | 84 | 146 | 0.9 | 2.6 | 0.00 | 0.00 | 0.00 | 72 | 1011.4 |
| 20260906072015 | 84 | 164 | 1.7 | 7.0 | 0.00 | 0.00 | 0.00 | 72 | 1011.5 |
| 20260906071515 | 84 | 180 | 0.9 | 7.0 | 0.00 | 0.00 | 0.00 | 71 | 1011.7 |
| 20260906065515 | 84 | 144 | 0.9 | 4.3 | 0.00 | 0.00 | 0.00 | 71 | 1011.7 |
| 20260906065015 | 84 | 219 | 4.3 | 4.3 | 0.00 | 0.00 | 0.00 | 70 | 1011.8 |
| 20260906064515 | 84 | 216 | 1.7 | 3.5 | 0.00 | 0.00 | 0.00 | 70 | 1011.9 |
| 20260906064016 | 84 | 257 | 0.0 | 2.6 | 0.00 | 0.00 | 0.00 | 70 | 1012.0 |
| 20260906063516 | 85 | 138 | 0.9 | 2.6 | 0.00 | 0.00 | 0.00 | 70 | 1012.1 |
| 20260906063015 | 85 | 198 | 0.9 | 3.5 | 0.00 | 0.00 | 0.00 | 70 | 1012.1 |
| 20260906062515 | 85 | 159 | 0.9 | 3.5 | 0.00 | 0.00 | 0.00 | 70 | 1012.0 |
| 20260906062015 | 85 | 227 | 0.9 | 4.3 | 0.00 | 0.00 | 0.00 | 69 | 1012.0 |
| 20260906061015 | 85 | 215 | 0.0 | 4.3 | 0.00 | 0.00 | 0.00 | 69 | 1012.1 |
| 20260906060515 | 85 | 133 | 4.3 | 4.3 | 0.00 | 0.00 | 0.00 | 69 | 1012.1 |
| 20260906060015 | 85 | 207 | 0.9 | 5.2 | 0.00 | 0.00 | 0.00 | 69 | 1012.1 |
| 20260906055515 | 85 | 119 | 3.5 | 5.2 | 0.00 | 0.00 | 0.00 | 69 | 1012.1 |
| 20260906055015 | 86 | 121 | 0.0 | 6.1 | 0.00 | 0.00 | 0.00 | 68 | 1012.1 |
| 20260906054515 | 86 | 168 | 3.5 | 6.1 | 0.00 | 0.00 | 0.00 | 68 | 1012.1 |
| 20260906054014 | 86 | 224 | 2.6 | 5.2 | 0.00 | 0.00 | 0.00 | 68 | 1012.0 |
| 20260906053514 | 86 | 232 | 4.3 | 4.3 | 0.00 | 0.00 | 0.00 | 67 | 1011.9 |
| 20260906053015 | 86 | 335 | 1.7 | 2.6 | 0.00 | 0.00 | 0.00 | 67 | 1011.9 |
| 20260906052515 | 86 | 124 | 0.0 | 2.6 | 0.00 | 0.00 | 0.00 | 66 | 1012.0 |
| 20260906052015 | 86 | 182 | 0.0 | 1.7 | 0.00 | 0.00 | 0.00 | 66 | 1012.1 |
| 20260906051515 | 86 | 153 | 0.9 | 2.6 | 0.00 | 0.00 | 0.00 | 66 | 1012.1 |
| 20260906050014 | 87 | 130 | 0.0 | 2.6 | 0.00 | 0.00 | 0.00 | 65 | 1012.1 |
| 20260906045514 | 87 | 235 | 0.9 | 4.3 | 0.00 | 0.00 | 0.00 | 65 | 1011.9 |
| 20260906045014 | 87 | 133 | 1.7 | 5.2 | 0.00 | 0.00 | 0.00 | 65 | 1011.9 |
| 20260906044514 | 87 | 213 | 2.6 | 5.2 | 0.00 | 0.00 | 0.00 | 64 | 1012.0 |
| 20260906044014 | 87 | 149 | 0.9 | 7.0 | 0.00 | 0.00 | 0.00 | 64 | 1012.0 |
| 20260906043514 | 87 | 140 | 0.9 | 7.0 | 0.00 | 0.00 | 0.00 | 64 | 1012.0 |
| 20260906043014 | 88 | 107 | 0.9 | 7.8 | 0.00 | 0.00 | 0.00 | 63 | 1012.2 |
| 20260906042514 | 88 | 124 | 6.1 | 7.8 | 0.00 | 0.00 | 0.00 | 63 | 1012.1 |
| 20260906042014 | 88 | 125 | 3.5 | 3.5 | 0.00 | 0.00 | 0.00 | 63 | 1012.1 |
| 20260906040514 | 88 | 133 | 2.6 | 4.3 | 0.00 | 0.00 | 0.00 | 62 | 1012.0 |
| 20260906035513 | 89 | 131 | 2.6 | 6.1 | 0.00 | 0.00 | 0.00 | 61 | 1011.9 |
| 20260906034513 | 89 | 139 | 0.9 | 3.5 | 0.00 | 0.00 | 0.00 | 60 | 1011.8 |
| 20260906034013 | 89 | 152 | 0.9 | 10.4 | 0.00 | 0.00 | 0.00 | 60 | 1011.8 |
| 20260906033514 | 89 | 161 | 4.3 | 10.4 | 0.00 | 0.00 | 0.00 | 60 | 1011.8 |
| 20260906033013 | 89 | 162 | 0.9 | 7.8 | 0.00 | 0.00 | 0.00 | 59 | 1011.8 |
| 20260906032513 | 90 | 133 | 1.7 | 7.8 | 0.00 | 0.00 | 0.00 | 59 | 1011.7 |
| 20260906032013 | 90 | 134 | 2.6 | 5.2 | 0.00 | 0.00 | 0.00 | 58 | 1011.7 |
| 20260906031513 | 90 | 201 | 3.5 | 6.1 | 0.00 | 0.00 | 0.00 | 57 | 1011.6 |
| 20260906030513 | 90 | 22 | 0.9 | 8.7 | 0.00 | 0.00 | 0.00 | 57 | 1011.4 |
| 20260906025513 | 91 | 146 | 2.6 | 3.5 | 0.00 | 0.00 | 0.00 | 55 | 1011.2 |
| 20260906025013 | 91 | 177 | 2.6 | 9.6 | 0.00 | 0.00 | 0.00 | 55 | 1011.0 |
| 20260906024513 | 91 | 123 | 4.3 | 9.6 | 0.00 | 0.00 | 0.00 | 55 | 1010.9 |
| 20260906024013 | 91 | 98 | 5.2 | 8.7 | 0.00 | 0.00 | 0.00 | 54 | 1010.7 |
| 20260906023512 | 91 | 144 | 5.2 | 5.2 | 0.00 | 0.00 | 0.00 | 53 | 1010.6 |
| 20260906023012 | 91 | 134 | 2.6 | 4.3 | 0.00 | 0.00 | 0.00 | 53 | 1010.5 |
| 20260906022512 | 92 | 133 | 1.7 | 3.5 | 0.00 | 0.00 | 0.00 | 53 | 1010.4 |
| 20260906021513 | 92 | 111 | 3.5 | 7.8 | 0.00 | 0.00 | 0.00 | 53 | 1009.9 |
| 20260906021012 | 92 | 107 | 2.6 | 6.1 | 0.00 | 0.00 | 0.00 | 53 | 1009.9 |
| 20260906020512 | 92 | 115 | 1.7 | 5.2 | 0.00 | 0.00 | 0.00 | 52 | 1009.7 |
| 20260906020012 | 92 | 130 | 1.7 | 5.2 | 0.00 | 0.00 | 0.00 | 52 | 1009.8 |
| 20260906015512 | 92 | 125 | 1.7 | 2.6 | 0.00 | 0.00 | 0.00 | 51 | 1009.7 |
| 20260906015012 | 93 | 133 | 1.7 | 2.6 | 0.00 | 0.00 | 0.00 | 51 | 1009.7 |
| 20260906013512 | 93 | 119 | 1.7 | 7.8 | 0.00 | 0.00 | 0.00 | 50 | 1009.6 |
| 20260906013012 | 93 | 101 | 0.0 | 7.8 | 0.00 | 0.00 | 0.00 | 50 | 1009.6 |
| 20260906012012 | 93 | 94 | 2.6 | 10.4 | 0.00 | 0.00 | 0.00 | 49 | 1009.4 |
| 20260906011512 | 92 | 87 | 3.5 | 6.1 | 0.00 | 0.00 | 0.00 | 49 | 1009.4 |
| 20260906011012 | 92 | 107 | 2.6 | 6.1 | 0.00 | 0.00 | 0.00 | 49 | 1009.4 |
| 20260906010512 | 92 | 120 | 2.6 | 2.6 | 0.00 | 0.00 | 0.00 | 49 | 1009.3 |
| 20260906010012 | 92 | 75 | 0.0 | 8.7 | 0.00 | 0.00 | 0.00 | 49 | 1009.3 |
| 20260906005512 | 92 | 133 | 2.6 | 8.7 | 0.00 | 0.00 | 0.00 | 49 | 1009.2 |
| 20260906005012 | 93 | 92 | 1.7 | 8.7 | 0.00 | 0.00 | 0.00 | 48 | 1009.4 |
| 20260906004012 | 95 | 188 | 4.3 | 9.6 | 0.00 | 0.00 | 0.00 | 45 | 1009.4 |
| 20260906003011 | 97 | 100 | 12.2 | 12.2 | 0.00 | 0.00 | 0.00 | 43 | 1009.4 |
| 20260906002511 | 97 | 101 | 7.0 | 9.6 | 0.00 | 0.00 | 0.00 | 42 | 1009.2 |
| 20260906001511 | 98 | 126 | 3.5 | 10.4 | 0.00 | 0.00 | 0.00 | 41 | 1009.1 |
| 20260906001011 | 98 | 155 | 6.1 | 10.4 | 0.00 | 0.00 | 0.00 | 40 | 1009.1 |
| 20260906000512 | 98 | 125 | 3.5 | 7.0 | 0.00 | 0.00 | 0.00 | 40 | 1009.1 |
| 20260906000011 | 99 | 145 | 2.6 | 6.1 | 0.00 | 0.00 | 0.00 | 39 | 1009.1 |
| 20260905235511 | 99 | 114 | 2.6 | 7.8 | 0.00 | 0.00 | 0.00 | 39 | 1009.0 |
| 20260905235011 | 99 | 294 | 2.6 | 8.7 | 0.00 | 0.00 | 0.00 | 38 | 1009.0 |
| 20260905234511 | 100 | 61 | 7.8 | 8.7 | 0.00 | 0.00 | 0.00 | 38 | 1009.1 |
| 20260905234011 | 100 | 104 | 5.2 | 6.1 | 0.00 | 0.00 | 0.00 | 38 | 1009.0 |
| 20260905233011 | 100 | 113 | 0.9 | 6.1 | 0.00 | 0.00 | 0.00 | 38 | 1008.9 |
| 20260905232511 | 100 | 253 | 0.0 | 0.9 | 0.00 | 0.00 | 0.00 | 38 | 1008.9 |
| 20260905232011 | 100 | 141 | 0.0 | 2.6 | 0.00 | 0.00 | 0.00 | 37 | 1008.9 |
| 20260905231011 | 100 | 228 | 0.9 | 3.5 | 0.00 | 0.00 | 0.00 | 38 | 1009.0 |
| 20260905230011 | 99 | 241 | 1.7 | 2.6 | 0.00 | 0.00 | 0.00 | 38 | 1008.9 |
| 20260905225011 | 99 | 123 | 0.9 | 1.7 | 0.00 | 0.00 | 0.00 | 39 | 1008.9 |
| 20260905224511 | 99 | 107 | 1.7 | 2.6 | 0.00 | 0.00 | 0.00 | 39 | 1008.9 |
| 20260905224010 | 99 | 113 | 0.0 | 3.5 | 0.00 | 0.00 | 0.00 | 39 | 1008.9 |
| 20260905223511 | 99 | 128 | 3.5 | 3.5 | 0.00 | 0.00 | 0.00 | 39 | 1008.9 |
| 20260905223010 | 99 | 90 | 0.0 | 7.8 | 0.00 | 0.00 | 0.00 | 38 | 1008.9 |
| 20260905222510 | 100 | 105 | 3.5 | 7.8 | 0.00 | 0.00 | 0.00 | 38 | 1009.0 |
| 20260905222010 | 100 | 75 | 2.6 | 4.3 | 0.00 | 0.00 | 0.00 | 37 | 1009.0 |
| 20260905221510 | 100 | 244 | 0.0 | 0.9 | 0.00 | 0.00 | 0.00 | 37 | 1009.1 |
| 20260905221010 | 100 | 94 | 0.9 | 3.5 | 0.00 | 0.00 | 0.00 | 37 | 1009.2 |
| 20260905220510 | 100 | 192 | 1.7 | 5.2 | 0.00 | 0.00 | 0.00 | 37 | 1009.2 |
| 20260905220010 | 101 | 85 | 2.6 | 5.2 | 0.00 | 0.00 | 0.00 | 37 | 1009.2 |
| 20260905215510 | 100 | 338 | 0.9 | 2.6 | 0.00 | 0.00 | 0.00 | 37 | 1009.1 |
| 20260905215010 | 101 | 228 | 1.7 | 4.3 | 0.00 | 0.00 | 0.00 | 36 | 1009.1 |
| 20260905214510 | 101 | 113 | 1.7 | 5.2 | 0.00 | 0.00 | 0.00 | 37 | 1009.2 |
| 20260905214010 | 101 | 107 | 1.7 | 5.2 | 0.00 | 0.00 | 0.00 | 37 | 1009.1 |
| 20260905213510 | 100 | 250 | 0.0 | 4.3 | 0.00 | 0.00 | 0.00 | 37 | 1009.1 |
| 20260905213010 | 100 | 126 | 0.0 | 6.1 | 0.00 | 0.00 | 0.00 | 37 | 1009.2 |
| 20260905212509 | 100 | 98 | 0.9 | 6.1 | 0.00 | 0.00 | 0.00 | 37 | 1009.2 |
| 20260905212009 | 100 | 115 | 1.7 | 1.7 | 0.00 | 0.00 | 0.00 | 37 | 1009.2 |
| 20260905211509 | 100 | 107 | 0.9 | 4.3 | 0.00 | 0.00 | 0.00 | 37 | 1009.2 |
| 20260905211009 | 100 | 132 | 1.7 | 4.3 | 0.00 | 0.00 | 0.00 | 37 | 1009.4 |
| 20260905210510 | 100 | 236 | 0.9 | 4.3 | 0.00 | 0.00 | 0.00 | 37 | 1009.4 |
| 20260905210009 | 100 | 155 | 2.6 | 3.5 | 0.00 | 0.00 | 0.00 | 38 | 1009.5 |
| 20260905205509 | 100 | 311 | 0.0 | 3.5 | 0.00 | 0.00 | 0.00 | 38 | 1009.5 |
| 20260905205009 | 100 | 319 | 2.6 | 4.3 | 0.00 | 0.00 | 0.00 | 38 | 1009.6 |
| 20260905204509 | 99 | 301 | 3.5 | 5.2 | 0.00 | 0.00 | 0.00 | 39 | 1009.7 |
| 20260905204439 | 99 | 315 | 1.7 | 7.0 | 0.00 | 0.00 | 0.00 | 39 | 1010.0 |
| 20260905202509 | 99 | 120 | 0.9 | 3.5 | 0.00 | 0.00 | 0.00 | 39 | 1010.2 |
| 20260905202009 | 99 | 72 | 0.9 | 3.5 | 0.00 | 0.00 | 0.00 | 39 | 1010.3 |
| 20260905201509 | 99 | 98 | 1.7 | 6.1 | 0.00 | 0.00 | 0.00 | 40 | 1010.4 |
| 20260905201009 | 98 | 186 | 1.7 | 7.8 | 0.00 | 0.00 | 0.00 | 40 | 1010.5 |
| 20260905200509 | 99 | 106 | 5.2 | 7.8 | 0.00 | 0.00 | 0.00 | 41 | 1010.5 |
| 20260905200009 | 98 | 139 | 6.1 | 7.0 | 0.00 | 0.00 | 0.00 | 42 | 1010.7 |
| 20260905195509 | 98 | 118 | 2.6 | 6.1 | 0.00 | 0.00 | 0.00 | 43 | 1010.7 |
| 20260905195008 | 98 | 232 | 2.6 | 4.3 | 0.00 | 0.00 | 0.00 | 44 | 1010.7 |
| 20260905194509 | 98 | 326 | 2.6 | 5.2 | 0.00 | 0.00 | 0.00 | 44 | 1010.8 |
| 20260905194008 | 98 | 300 | 4.3 | 8.7 | 0.00 | 0.00 | 0.00 | 44 | 1010.9 |
| 20260905193508 | 98 | 162 | 8.7 | 8.7 | 0.00 | 0.00 | 0.00 | 44 | 1011.0 |
| 20260905193009 | 98 | 144 | 0.9 | 3.5 | 0.00 | 0.00 | 0.00 | 45 | 1011.1 |
| 20260905192508 | 98 | 221 | 0.9 | 6.1 | 0.00 | 0.00 | 0.00 | 45 | 1011.1 |
| 20260905192008 | 98 | 119 | 0.0 | 6.1 | 0.00 | 0.00 | 0.00 | 45 | 1011.2 |
| 20260905191508 | 97 | 167 | 0.9 | 7.8 | 0.00 | 0.00 | 0.00 | 47 | 1011.2 |
| 20260905190008 | 97 | 201 | 1.7 | 5.2 | 0.00 | 0.00 | 0.00 | 48 | 1011.5 |
| 20260905185507 | 96 | 213 | 1.7 | 5.2 | 0.00 | 0.00 | 0.00 | 48 | 1011.6 |
| 20260905185007 | 96 | 119 | 0.9 | 4.3 | 0.00 | 0.00 | 0.00 | 48 | 1011.7 |
| 20260905184507 | 96 | 113 | 3.5 | 5.2 | 0.00 | 0.00 | 0.00 | 49 | 1011.9 |
| 20260905184007 | 95 | 108 | 2.6 | 5.2 | 0.00 | 0.00 | 0.00 | 49 | 1011.9 |